Printer-friendly version

IAU Minor Planet Center

Minor Planet Center

MPEC 2006-Y67 : 2005 VJ119

The following Minor Planet Electronic Circular may be linked-to from your own Web pages, but must not otherwise be redistributed electronically.


Read MPEC 2006-Y66 Read MPEC 2006-Y68


M.P.E.C. 2006-Y67                                Issued 2006 Dec. 29, 03:47 UT

     The Minor Planet Electronic Circulars contain information on unusual
         minor planets and routine data on comets.  They are published
   on behalf of Commission 20 of the International Astronomical Union by the
          Minor Planet Center, Smithsonian Astrophysical Observatory,
                          Cambridge, MA 02138, U.S.A.

             Prepared using the Tamkin Foundation Computer Network

                              MPC@CFA.HARVARD.EDU
          URL http://cfa-www.harvard.edu/iau/mpc.html  ISSN 1523-6714

                                  2005 VJ119

                           Revision to MPEC 2005-W95

Additional Observations:
     K05VB9J  C2006 12 27.17672 11 06 32.89 +00 35 50.9                 EY067461
     K05VB9J  C2006 12 28.18836 11 06 33.00 +00 35 12.1          21.5 R EY067461

Observer details:
461 Szeged University, Piszkesteto Stn. (Konkoly).  Observer K. Sarneczky.
    0.60-m Schmidt + CCD.

First and last observations above in comparison with prediction:
Residuals in seconds of arc, reference and Delta-T
061227 461  1.4-  0.7+    061228 461  2.3-  1.2+    MPO111149   -0.63 day

Orbital elements:
2005 VJ119
Epoch 2007 Apr. 10.0 TT = JDT 2454200.5                 MPC
M 357.12156              (2000.0)            P               Q
n   0.00456387     Peri.  245.59313     -0.98615688     +0.12994267
a  35.9954068      Node   301.72371     -0.06974989     -0.88864007
e   0.6868694      Incl.    6.95529     -0.15043123     -0.43981102
P 216              H   10.6           G   0.15           U   1
Residuals in seconds of arc
051107 568  0.1+  0.2+    051126 568  0.1-  0.0     060130 688  0.0   0.0
051107 568  0.1+  0.0     051126 568  0.0   0.0     060130 688  0.4+  0.1+
051107 568  0.1+  0.1+    051229 568  0.0   0.1-    060423 461  0.3-  0.9-
051111 568  0.0   0.1-    051229 568  0.0   0.1-    060427 568  0.1+  0.1+
051111 568  0.0   0.1-    060125 461  0.2-  0.1-    060428 568  0.1-  0.0
051113 568  0.1-  0.0     060125 461  0.2-  0.1-    061227 461  0.4+  0.2-
051113 568  0.1-  0.1-    060126 461  0.2+  0.1+    061228 461  0.4-  0.3+
051113 568  0.0   0.0     060126 461  0.4+  0.2+

Ephemeris:
2005 VJ119               a,e,i = 36.00, 0.69, 7                  q = 11.271
Date    TT    R. A. (2000) Decl.     Delta      r     Elong.  Phase     V
2006 12 21    11 06.41   +00 40.6   11.463   11.698   101.4     4.7    21.6
2006 12 31    11 06.53   +00 33.6   11.291   11.687   111.5     4.5    21.6
2007 01 10    11 06.12   +00 30.0   11.129   11.676   121.7     4.1    21.5
2007 01 20    11 05.22   +00 29.8   10.983   11.665   132.0     3.6    21.5
2007 01 30    11 03.86   +00 32.9   10.858   11.654   142.4     3.0    21.4
2007 02 09    11 02.14   +00 39.0   10.757   11.644   152.9     2.2    21.3
2007 02 19    11 00.13   +00 47.6   10.684   11.633   163.2     1.4    21.3
2007 03 01    10 57.96   +00 58.1   10.640   11.623   172.5     0.6    21.2
2007 03 11    10 55.75   +01 09.9   10.627   11.613   172.6     0.6    21.2
2007 03 21    10 53.61   +01 22.1   10.645   11.603   163.4     1.4    21.2
2007 03 31    10 51.66   +01 34.0   10.691   11.593   153.4     2.2    21.3
2007 04 10    10 50.01   +01 44.9   10.765   11.583   143.2     3.0    21.4
2007 04 20    10 48.75   +01 54.1   10.863   11.573   133.2     3.6    21.4
2007 04 30    10 47.93   +02 01.2   10.981   11.564   123.3     4.2    21.5
2007 05 10    10 47.61   +02 05.6   11.114   11.555   113.5     4.6    21.5
2007 05 20    10 47.80   +02 07.2   11.260   11.545   104.0     4.9    21.6
2007 05 30    10 48.52   +02 05.7   11.411   11.536    94.6     5.0    21.6
2007 06 09    10 49.74   +02 01.1   11.566   11.527    85.3     5.0    21.6
2007 06 19    10 51.44   +01 53.3   11.718   11.519    76.3     4.9    21.7
2007 06 29    10 53.60   +01 42.5   11.864   11.510    67.3     4.7    21.7
2007 07 09    10 56.15   +01 28.9   12.000   11.502    58.5     4.3    21.7
2007 07 19    10 59.07   +01 12.5   12.123   11.493    49.8     3.9    21.7
2007 07 29    11 02.30   +00 53.6   12.230   11.485    41.2     3.3    21.7
2007 08 08    11 05.78   +00 32.5   12.318   11.477    32.6     2.7    21.6

Brian G. Marsden             (C) Copyright 2006 MPC           M.P.E.C. 2006-Y67

Read MPEC 2006-Y66 Read MPEC 2006-Y68


Our Web policy. Index to the CBAT/MPC/ICQ pages.


Valid HTML 4.01!